Cloud_Cover
0 0 0 0 0 0 0 0 0 0 0 0 0 1 5 5 5 5 5 5 20 100
0 0 0 0 0 0 0 0 0 2 5 5 5 5 5 5 5 5 5 5 5 23
0 0 0 0 0 1 3 4 5 5 5 5 5 5 5 5 5 5 5 5 5 5
0 0 0 0 0 5 5 5 5 5 5 5 5 5 5 5 5 5 35 45 55 5
1 0 0 0 0 1 5 5 5 5 5 5 5 5 5 5 52 21 88 22 88 74
5 5 5 1 1 5 5 5 5 5 5 11 47 5 5 71 54 27 77 93 96 87
5 5 5 5 5 5 5 5 5 8 5 9 29 64 84 91 66 47 5 29 13 49
5 5 5 5 5 5 5 5 5 64 67 73 88 73 99 100 92 94 92 49 79 98
5 5 28 58 5 5 5 12 67 90 100 100 98 100 100 100 100 100 100 100 76 89
5 56 6 8 71 85 79 94 100 100 100 100 100 100 100 100 100 100 100 98 97 98
5 12 28 80 100 99 100 100 100 100 100 100 100 100 100 100 100 100 85 76 45 48
5 74 97 100 100 100 100 100 100 100 100 100 100 100 100 100 100 100 87 31 8 58
5 74 100 100 100 100 100 100 100 100 100 100 98 100 100 100 100 100 100 100 100 47
26 58 100 100 100 100 100 100 100 100 100 100 100 100 100 100 100 100 100 100 91 95